Wind_Speed
15 15 14 14 14 13 15 16 16 16 17 17 18 19 19 19 18 18 17 17 16 15 15 15 15 14 14 14 13 12 12 12 11 10 10 9 9 8 8 8 7 6 6
13 13 12 13 13 13 14 14 14 15 16 16 16 18 19 19 20 20 19 19 18 18 17 16 16 16 16 16 15 15 14 14 13 13 12 11 11 10 10 9 8 8 7
12 12 12 13 13 13 13 14 13 14 16 16 17 17 19 20 21 21 20 20 20 20 19 19 18 17 17 17 18 18 17 16 16 15 14 14 13 13 12 11 10 10 9
12 12 12 13 13 13 13 14 14 14 14 15 17 18 19 20 21 21 20 21 21 21 21 21 21 20 19 19 19 20 20 20 18 18 17 16 16 15 15 14 13 12 11
11 12 12 12 13 13 13 14 14 15 15 15 16 16 18 19 20 21 20 21 22 22 22 22 22 22 22 21 20 20 21 21 21 21 20 19 19 18 17 17 16 15 14
11 11 11 13 13 13 14 14 14 14 15 15 15 16 16 17 18 19 20 20 21 22 23 22 23 23 22 22 23 22 22 23 23 23 23 22 22 21 20 19 19 18 17
10 10 11 12 12 13 13 13 14 14 14 15 15 15 16 17 18 18 19 20 21 22 22 23 23 23 23 24 24 24 24 24 25 25 25 24 24 24 23 22 21 21 20
9 9 10 10 11 11 12 12 13 13 13 14 14 15 15 16 17 18 19 20 20 22 23 23 23 24 25 25 26 27 26 25 26 26 27 27 26 26 26 25 24 23 22
8 8 8 9 9 10 11 11 12 12 13 14 14 15 15 15 16 18 19 20 20 21 23 23 24 25 26 25 25 27 27 26 26 26 27 28 28 28 28 28 27 26 25
6 7 7 8 9 9 10 10 11 12 12 13 13 14 14 15 15 16 18 19 20 21 22 23 24 24 26 26 26 27 28 27 27 27 27 28 29 30 30 30 30 29 28
5 6 7 8 8 9 10 10 10 11 11 12 12 13 13 14 15 16 17 18 19 20 21 22 24 25 25 26 27 27 28 28 28 28 28 29 30 31 33 33 32 32 31
4 5 6 7 8 8 8 9 9 10 10 11 12 13 13 14 15 16 17 18 19 20 21 22 24 25 26 26 26 27 28 29 30 30 30 30 31 32 33 34 34 34 34
4 5 6 7 7 8 8 8 9 10 11 11 12 12 13 14 16 17 17 19 20 21 22 23 24 25 26 26 27 28 28 29 30 31 32 33 33 33 34 36 36 36 36
5 5 6 7 8 8 8 9 10 10 11 12 12 13 13 14 15 16 17 18 19 20 21 22 24 24 25 26 27 28 28 29 30 31 32 33 34 35 35 36 37 37 38
5 6 7 8 8 9 9 10 10 11 12 12 13 13 14 15 16 17 18 19 20 20 21 22 22 23 25 26 27 28 29 29 30 31 32 33 34 34 36 37 38 38 39
6 7 8 9 9 10 10 10 11 12 13 13 14 14 15 15 16 17 18 19 19 20 21 21 23 23 25 26 27 27 29 30 31 31 32 33 34 35 36 38 39 40 40
7 8 9 9 10 10 11 11 12 13 13 14 14 15 16 16 17 18 18 19 20 20 21 22 23 24 24 25 26 27 28 30 31 32 33 33 34 35 36 37 39 40 41
8 9 9 10 10 11 11 12 13 13 14 15 16 16 17 17 18 18 19 19 20 21 22 22 24 24 25 26 27 28 29 30 31 32 33 34 35 35 36 37 38 39 40
9 10 10 11 11 11 12 13 14 14 15 16 16 17 17 18 18 19 19 20 21 21 22 23 24 25 26 27 27 28 30 31 32 33 34 35 36 36 37 38 38 39 40
10 11 12 12 13 13 13 14 15 15 16 16 17 18 18 19 19 20 20 21 22 22 23 23 24 25 26 26 27 28 29 31 32 33 35 36 37 37 38 38 39 40 41
12 12 13 14 14 14 15 16 16 17 17 18 18 19 19 20 21 21 21 22 22 23 24 24 25 25 26 27 28 28 29 29 30 32 33 35 36 38 39 40 40 41 42
13 14 15 15 16 16 16 17 18 18 19 19 20 20 20 21 22 22 23 23 23 24 24 25 25 25 26 27 28 29 29 29 30 32 33 34 35 36 38 40 41 42 43
15 16 16 17 17 18 18 18 19 19 20 21 21 22 22 22 23 23 24 25 25 25 25 25 25 25 26 27 28 28 29 30 30 32 33 34 36 37 38 39 40 42 44
17 17 18 18 19 19 20 20 21 21 21 22 23 23 24 24 25 25 25 25 25 25 25 25 25 26 26 27 28 29 30 30 31 32 34 34 35 36 37 39 40 41 43
19 19 19 20 20 21 21 22 22 22 23 24 24 25 26 26 26 26 26 26 26 26 26 26 26 27 27 28 29 30 31 31 31 32 33 34 35 36 36 37 39 40 42
20 21 21 22 22 23 23 23 24 24 25 25 26 26 27 27 28 27 27 27 27 28 28 28 27 28 28 29 30 31 31 32 32 32 33 34 34 35 35 36 38 39 40
Wind_Direction
262 265 267 268 265 261 260 257 255 253 255 254 247 245 243 243 242 245 244 243 240 241 242 241 241 241 239 236 232 230 228 224 221 218 216 214 211 207 203 200 198 194 190
263 266 267 267 265 263 263 260 259 256 255 254 251 245 243 243 244 248 245 243 242 243 243 243 243 243 241 239 237 235 233 230 226 222 220 219 219 217 214 211 209 206 205
264 265 268 269 268 266 263 263 266 263 257 256 254 252 247 246 248 248 247 246 246 245 244 243 243 242 241 241 240 237 236 235 231 226 223 223 224 224 222 220 218 217 215
267 267 269 273 272 269 267 266 263 265 264 262 258 255 253 249 249 250 249 247 246 245 246 246 245 244 243 243 244 240 237 235 233 231 229 228 228 228 228 227 225 224 222
264 263 268 273 273 271 272 272 268 268 268 266 264 261 259 255 253 251 250 248 246 244 246 248 249 248 247 247 245 242 238 236 235 235 235 233 232 231 231 231 230 228 227
265 267 273 275 275 274 273 274 274 274 272 269 268 264 261 259 258 257 253 250 248 246 245 248 250 249 248 249 246 243 240 238 238 237 236 236 235 234 233 233 233 232 231
275 275 278 279 276 276 276 278 279 279 276 274 271 268 265 262 259 258 257 254 252 251 250 250 251 250 250 249 247 245 245 243 241 238 237 237 237 236 235 235 235 235 234
282 281 282 284 282 281 281 281 281 280 277 276 274 273 269 266 261 259 258 257 256 255 254 253 253 252 253 251 249 248 248 248 245 242 239 237 237 238 237 236 236 236 235
286 289 288 288 289 288 286 286 286 284 282 280 277 274 271 270 267 263 261 261 260 259 256 254 255 253 254 254 251 249 248 246 245 244 243 242 240 239 239 238 237 237 237
292 298 300 300 298 295 292 292 290 289 288 285 281 276 273 270 270 268 266 265 263 262 260 258 258 258 257 256 254 251 248 249 246 246 246 244 243 242 241 240 239 238 238
304 308 311 310 307 305 303 300 298 296 295 291 286 283 280 274 272 272 271 269 268 267 265 263 261 260 260 259 259 255 252 253 249 248 248 248 248 246 244 241 240 240 240
315 315 316 314 313 314 313 311 307 305 304 300 293 288 284 281 278 277 275 273 271 268 266 265 263 261 261 261 259 257 256 255 253 251 249 249 249 248 246 245 244 243 242
329 325 324 326 323 319 319 318 315 312 310 308 303 297 292 288 285 281 278 276 273 271 269 267 265 265 263 263 260 258 256 256 255 254 252 251 251 249 248 247 246 246 245
336 335 334 332 328 323 321 320 319 316 313 310 307 304 299 295 291 287 283 281 279 277 272 270 269 267 266 265 264 261 259 257 256 255 256 255 253 251 250 248 247 246 247
335 333 333 332 329 326 323 321 319 317 315 313 311 308 304 300 296 293 289 286 284 281 278 275 272 271 269 267 266 265 263 261 258 256 255 255 255 253 252 251 249 247 247
332 334 333 331 330 327 325 323 323 322 320 316 313 310 308 306 302 298 294 291 288 284 281 278 276 273 272 270 269 267 265 263 261 259 257 256 255 255 254 253 251 250 249
329 330 330 329 329 329 327 325 324 322 320 318 316 313 311 308 306 304 299 295 291 287 285 282 280 278 276 274 273 271 268 265 263 261 260 259 258 257 256 256 254 252 250
326 327 328 327 327 327 326 325 323 322 321 320 318 317 314 311 309 307 304 300 296 293 289 285 283 281 280 278 277 275 272 269 266 263 261 260 259 258 257 256 256 254 252
321 323 324 325 324 324 323 322 322 322 322 321 320 318 316 314 311 309 308 304 301 298 294 289 286 285 283 281 279 278 275 272 269 266 264 262 261 259 258 257 257 255 254
314 317 319 320 320 319 319 319 320 321 321 321 320 319 317 316 314 312 309 306 304 300 297 293 290 288 285 283 282 281 278 276 273 269 267 264 262 261 260 259 257 255 254
310 312 315 317 317 317 318 319 319 320 320 320 320 319 319 317 315 314 312 309 307 304 300 296 293 290 287 285 284 283 281 278 275 272 270 267 264 262 261 260 258 257 256
306 309 311 315 315 316 316 317 318 318 318 318 318 318 317 317 316 315 313 310 308 307 304 301 297 293 290 288 287 286 284 281 278 275 272 270 268 266 263 261 260 258 256
303 307 308 311 313 313 313 315 316 316 317 316 316 317 316 315 314 313 312 310 309 308 306 305 301 297 294 291 290 288 286 284 281 278 276 273 271 269 267 264 262 259 258
300 303 306 309 311 311 311 312 313 313 314 315 315 315 315 314 314 313 312 310 309 308 307 306 304 301 298 295 293 291 288 287 285 282 280 277 274 271 269 267 264 261 259
298 301 303 305 307 308 309 309 311 312 313 313 314 314 314 314 313 313 312 310 309 308 307 306 305 302 300 298 296 294 291 288 287 285 283 280 276 273 271 270 267 265 262
296 299 301 303 304 305 306 307 309 310 311 311 312 311 312 312 312 311 310 310 309 308 307 306 305 303 301 299 297 296 294 291 289 287 284 282 279 276 273 271 269 268 266
Height
5874 5874 5875 5875 5875 5876 5877 5878 5879 5880 5881 5882 5883 5885 5886 5886 5888 5888 5890 5892 5894 5896 5897 5899 5901 5902 5904 5906 5907 5909 5910 5912 5913 5915 5916 5918 5919 5920 5921 5923 5924 5925 5926
5871 5872 5872 5872 5873 5873 5874 5875 5876 5877 5878 5879 5880 5881 5882 5883 5885 5886 5887 5889 5891 5893 5894 5896 5898 5900 5902 5904 5905 5907 5908 5910 5912 5913 5915 5916 5918 5919 5921 5922 5923 5924 5925
5869 5869 5870 5870 5870 5871 5871 5872 5873 5874 5875 5876 5877 5878 5879 5880 5881 5882 5884 5886 5887 5889 5891 5893 5895 5897 5899 5900 5902 5904 5906 5908 5909 5911 5913 5915 5916 5918 5919 5921 5922 5923 5925
5866 5867 5867 5868 5868 5868 5869 5869 5870 5871 5871 5872 5873 5874 5876 5876 5878 5879 5880 5882 5884 5886 5888 5890 5891 5893 5895 5897 5899 5901 5903 5905 5906 5908 5910 5912 5914 5916 5917 5919 5920 5922 5923
5864 5864 5865 5865 5865 5866 5866 5866 5867 5867 5868 5869 5869 5870 5871 5873 5874 5875 5876 5877 5879 5881 5883 5885 5887 5889 5891 5893 5895 5896 5899 5901 5903 5905 5907 5909 5911 5913 5915 5917 5918 5920 5921
5862 5862 5863 5863 5863 5863 5863 5863 5864 5864 5864 5865 5866 5866 5867 5868 5869 5871 5872 5873 5875 5876 5879 5881 5883 5884 5886 5888 5890 5892 5894 5896 5898 5900 5902 5905 5907 5909 5911 5913 5915 5917 5919
5859 5860 5860 5860 5860 5860 5860 5861 5861 5861 5861 5862 5862 5863 5863 5864 5865 5867 5868 5869 5870 5872 5874 5876 5877 5878 5881 5883 5885 5887 5889 5891 5893 5896 5898 5900 5902 5905 5907 5909 5912 5914 5916
5857 5857 5858 5858 5858 5858 5858 5858 5858 5858 5858 5858 5859 5859 5860 5861 5861 5862 5863 5864 5865 5867 5868 5870 5872 5874 5876 5878 5880 5882 5884 5886 5888 5890 5892 5895 5897 5900 5902 5905 5907 5909 5912
5854 5855 5855 5856 5856 5856 5855 5855 5855 5855 5855 5855 5855 5856 5856 5857 5857 5858 5859 5860 5861 5862 5863 5864 5866 5868 5870 5871 5874 5876 5878 5880 5882 5885 5887 5889 5892 5894 5897 5899 5902 5905 5907
5853 5853 5854 5854 5853 5853 5853 5853 5852 5852 5852 5852 5852 5852 5852 5852 5853 5854 5854 5855 5856 5857 5858 5859 5861 5862 5864 5866 5868 5870 5872 5874 5876 5879 5881 5883 5885 5888 5891 5893 5896 5899 5901
5852 5852 5852 5852 5852 5851 5850 5850 5850 5849 5849 5849 5849 5849 5848 5849 5849 5850 5850 5851 5851 5852 5853 5854 5855 5856 5858 5860 5861 5863 5865 5867 5869 5871 5874 5876 5879 5881 5884 5887 5889 5892 5895
5851 5851 5851 5851 5850 5849 5849 5848 5847 5847 5846 5846 5845 5845 5845 5845 5845 5845 5846 5846 5847 5847 5848 5849 5849 5851 5852 5853 5855 5857 5858 5860 5862 5864 5867 5869 5871 5874 5877 5879 5882 5885 5888
5850 5850 5850 5849 5849 5848 5847 5847 5846 5845 5844 5843 5842 5842 5841 5841 5841 5841 5841 5841 5841 5842 5842 5843 5843 5844 5846 5847 5849 5850 5852 5853 5855 5857 5859 5861 5863 5866 5869 5871 5874 5877 5880
5850 5849 5849 5848 5848 5847 5846 5845 5844 5843 5842 5841 5840 5839 5838 5838 5837 5837 5837 5836 5836 5836 5836 5837 5837 5838 5839 5840 5841 5842 5844 5845 5847 5849 5851 5853 5855 5857 5860 5863 5866 5869 5871
5849 5849 5848 5847 5846 5845 5844 5843 5842 5841 5840 5839 5837 5836 5836 5835 5834 5833 5832 5832 5831 5831 5831 5831 5831 5832 5832 5833 5834 5835 5836 5837 5839 5840 5842 5844 5846 5848 5851 5853 5856 5859 5862
5848 5848 5847 5846 5845 5844 5843 5842 5841 5839 5838 5836 5835 5834 5832 5831 5830 5829 5828 5827 5826 5825 5825 5825 5825 5825 5825 5826 5826 5827 5828 5829 5830 5831 5833 5835 5837 5839 5841 5844 5846 5849 5852
5847 5847 5846 5845 5844 5843 5841 5840 5839 5837 5835 5834 5832 5831 5829 5827 5826 5824 5823 5822 5821 5820 5819 5819 5818 5818 5818 5818 5819 5819 5820 5820 5821 5822 5824 5826 5827 5829 5831 5833 5836 5838 5841
5846 5845 5844 5843 5842 5841 5840 5838 5837 5835 5833 5831 5829 5827 5825 5823 5822 5820 5818 5817 5816 5814 5814 5813 5812 5812 5811 5811 5811 5811 5811 5812 5813 5813 5814 5816 5817 5819 5821 5823 5825 5828 5830
5845 5844 5843 5842 5840 5839 5837 5836 5834 5832 5830 5828 5826 5824 5822 5820 5818 5816 5814 5812 5810 5809 5808 5807 5805 5805 5804 5803 5803 5802 5802 5803 5803 5804 5805 5806 5807 5809 5810 5812 5815 5817 5819
5843 5842 5841 5839 5838 5837 5835 5833 5831 5829 5827 5825 5823 5821 5818 5816 5814 5811 5809 5807 5805 5803 5802 5800 5799 5797 5796 5795 5795 5794 5794 5793 5794 5794 5795 5796 5797 5798 5799 5802 5803 5805 5808
5840 5839 5838 5837 5835 5834 5832 5830 5828 5826 5824 5822 5819 5817 5814 5812 5809 5807 5804 5802 5800 5797 5795 5793 5792 5790 5789 5787 5787 5786 5785 5784 5784 5784 5784 5785 5786 5787 5788 5789 5791 5793 5795
5837 5836 5835 5834 5832 5830 5828 5826 5824 5822 5820 5818 5815 5813 5810 5807 5805 5802 5799 5796 5794 5791 5789 5786 5784 5783 5781 5779 5778 5777 5776 5775 5775 5774 5774 5775 5775 5776 5776 5778 5779 5780 5782
5834 5833 5831 5830 5828 5826 5824 5822 5820 5818 5816 5813 5810 5808 5805 5802 5800 5797 5793 5791 5788 5785 5782 5780 5778 5775 5773 5771 5770 5768 5767 5766 5765 5764 5763 5764 5763 5764 5764 5765 5766 5767 5769
5829 5828 5827 5825 5824 5822 5820 5817 5815 5813 5810 5808 5805 5802 5800 5797 5793 5791 5788 5785 5782 5779 5776 5773 5771 5768 5765 5763 5761 5760 5758 5757 5755 5753 5752 5752 5752 5751 5752 5752 5753 5754 5755
5825 5823 5822 5820 5819 5817 5815 5812 5810 5808 5805 5803 5800 5797 5794 5791 5788 5784 5781 5778 5775 5772 5769 5766 5763 5760 5758 5755 5753 5751 5749 5747 5746 5743 5741 5740 5740 5739 5739 5740 5740 5740 5741
5819 5818 5817 5815 5813 5811 5809 5807 5805 5802 5800 5797 5794 5791 5788 5785 5781 5778 5775 5772 5768 5765 5762 5759 5756 5753 5750 5747 5744 5742 5739 5737 5735 5733 5730 5728 5728 5727 5728 5728 5727 5727 5728